Millington, TN

4:46 PM CDT on April 24, 2017 (GMT -0500)
Millington Municipal

Weather History for KNQA - November, 2013

Change the Weather History Date:

Tuesday, November 5, 2013

  Actual Average Record
Temperature  
Mean Temperature 62 °F -  
Max Temperature 71 °F 64 °F 82 °F (2005)
Min Temperature 53 °F 46 °F 32 °F (1998)
Degree Days  
Heating Degree Days 3    
Growing Degree Days 12 (Base 50)    
Moisture  
Dew Point 48 °F    
Average Humidity 66    
Maximum Humidity 77    
Minimum Humidity 50    
Precipitation  
Precipitation 0.00 in - - ()
Sea Level Pressure  
Sea Level Pressure 30.22 in    
Wind  
Wind Speed 4 mph (SE)    
Max Wind Speed 12 mph    
Max Gust Speed -    
Visibility 10 miles    
Events      
Averages and records for this station are not official NWS values.
T = Trace of Precipitation, MM = Missing Value Source: NWS Daily Summary

Daily Weather History Graph

Daily Weather History Graph

Search for Another Location

Airport or City:

Trip Planner

Search our weather history database for the weather conditions in past years. The results will help you decide how hot, cold, wet, or windy it might be!

Date:

Astronomy

Nov. 05, 2013 Rise Set
Actual Time 6:25 AM CST 5:00 PM CST
Civil Twilight 5:58 AM CST 5:27 PM CST
Nautical Twilight 5:28 AM CST 5:57 PM CST
Astronomical Twilight 4:58 AM CST 6:27 PM CST
Moon 8:37 AM CST (11/5) 7:05 PM CST (11/5)
Length of Visible Light 11h 28m
Length of Day
10h 35m
Waxing Crescent, 7% of the Moon is Illuminated
Nov 5
Waxing Crescent
Nov 9
First Quarter
Nov 17
Full
Nov 25
Last Quarter
Dec 2
New

Hourly Weather History & Observations

Time (CST) Temp. Dew Point Humidity Pressure Visibility Wind Dir Wind Speed Gust Speed Precip Events Conditions
12:55 AM 53.6 °F 46.4 °F 77% 30.24 in 10.0 mi Calm Calm - N/A   Mostly Cloudy
1:55 AM 55.4 °F 46.4 °F 72% 30.24 in 10.0 mi Calm Calm - N/A   Mostly Cloudy
2:15 AM 55.4 °F 46.4 °F 72% 30.24 in 10.0 mi Calm Calm - N/A   Clear
2:35 AM 55.4 °F 46.4 °F 72% 30.25 in 10.0 mi Calm Calm - N/A   Clear
2:55 AM 55.4 °F 46.4 °F 72% 30.25 in 10.0 mi ESE 4.6 mph - N/A   Clear
3:15 AM 55.4 °F 46.4 °F 72% 30.24 in 10.0 mi Variable 4.6 mph - N/A   Clear
3:35 AM 55.4 °F 46.4 °F 72% 30.23 in 10.0 mi ESE 5.8 mph - N/A   Clear
3:55 AM 55.4 °F 46.4 °F 72% 30.24 in 10.0 mi SE 5.8 mph - N/A   Clear
4:15 AM 55.4 °F 46.4 °F 72% 30.26 in 10.0 mi Variable 4.6 mph - N/A   Clear
4:35 AM 55.4 °F 46.4 °F 72% 30.25 in 10.0 mi Variable 4.6 mph - N/A   Clear
4:55 AM 55.4 °F 46.4 °F 72% 30.26 in 10.0 mi Variable 4.6 mph - N/A   Partly Cloudy
5:55 AM 55.4 °F 46.4 °F 72% 30.27 in 10.0 mi SE 5.8 mph - N/A   Overcast
6:55 AM 55.4 °F 46.4 °F 72% 30.28 in 10.0 mi SE 6.9 mph - N/A   Overcast
7:55 AM 57.2 °F 44.6 °F 63% 30.30 in 10.0 mi Variable 4.6 mph - N/A   Mostly Cloudy
8:55 AM 57.2 °F 44.6 °F 63% 30.30 in 10.0 mi SE 6.9 mph - N/A   Mostly Cloudy
9:55 AM 59.0 °F 44.6 °F 59% 30.29 in 10.0 mi Variable 6.9 mph - N/A   Mostly Cloudy
10:55 AM 62.6 °F 46.4 °F 55% 30.26 in 10.0 mi SE 6.9 mph - N/A   Mostly Cloudy
11:55 AM 64.4 °F 48.2 °F 56% 30.24 in 10.0 mi Variable 4.6 mph - N/A   Mostly Cloudy
12:55 PM 68.0 °F 51.8 °F 56% 30.20 in 10.0 mi SE 9.2 mph - N/A   Mostly Cloudy
1:55 PM 71.6 °F 51.8 °F 50% 30.17 in 10.0 mi SE 11.5 mph - N/A   Mostly Cloudy
2:55 PM 71.6 °F 51.8 °F 50% 30.15 in 10.0 mi SE 11.5 mph - N/A   Mostly Cloudy
3:55 PM 71.6 °F 53.6 °F 53% 30.15 in 10.0 mi SE 10.4 mph - N/A   Scattered Clouds
4:55 PM 68.0 °F 53.6 °F 60% 30.16 in 10.0 mi ESE 3.5 mph - N/A   Mostly Cloudy
5:55 PM 66.2 °F 53.6 °F 64% 30.16 in 10.0 mi Variable 3.5 mph - N/A   Overcast
6:55 PM 64.4 °F 51.8 °F 64% 30.16 in 10.0 mi ESE 5.8 mph - N/A   Overcast
7:55 PM 62.6 °F 51.8 °F 68% 30.16 in 10.0 mi Variable 5.8 mph - N/A   Overcast
8:55 PM 62.6 °F 51.8 °F 68% 30.16 in 10.0 mi SE 5.8 mph - N/A   Overcast
9:55 PM 60.8 °F 50.0 °F 68% 30.17 in 10.0 mi SE 5.8 mph - N/A   Partly Cloudy
10:55 PM 62.6 °F 50.0 °F 63% 30.17 in 10.0 mi SE 8.1 mph - N/A   Partly Cloudy
11:55 PM 60.8 °F 50.0 °F 68% 30.14 in 10.0 mi SE 8.1 mph - N/A   Clear